Location: Cassano d�Adda
(45.5333°N, 9.5167°E)
Time: 07:06:54
(UTC+00:00)

SKYMED 2 - Pass Details

Date: 08 December 2019
Orbit: 621 x 623 km, 97.9° (Epoch: 17 January)

Event Time Altitude Azimuth Distance (km) Brightness Sun altitude
Exits shadow 17:41:07 22° 11° (N) 1,363 5.1 -20.6°
Maximum altitude 17:43:53 83° 285° (WNW) 634 3.5 -21.1°
Drops below altitude 10° 17:48:13 10° 197° (SSW) 1,987 6.5 -21.9°
Sets 17:50:23 0° 197° (SSW) 2,888 7.4 -22.2°
